C/2020 O2 ( Amaral )

Japanese version
Home page
Updated on December 30, 2022

---------------------------------------------------------------------

* Profile

Discovery Date July 23, 2020
Magnitude 18.1 mag
Discoverer Leonardo S. Amaral (Rio de Janeiro, Brazil)

* Pictures

* Orbital Elements

Epoch 2022 Aug. 9.0 TT = JDT 2459800.5
T 2021 Aug. 28.65722 TT                                 Rudenko
q   4.8624772            (2000.0)            P               Q
z  -0.0004393      Peri.   10.31617     -0.17072683     +0.34084499
 +/-0.0000007      Node   256.76148     -0.95809548     -0.27645383
e   1.0021359      Incl.   71.75497     -0.23001172     +0.89855327
From 1309 observations 2020 July 23-2022 Sept. 6, mean residual 0".5.

* Finding Charts

* Magnitudes Graph

        m1 = 0.5 + 5 log d + 17.5 log r(t - 80)

---------------------------------------------------------------------

The orbital elements are published on M.P.E.C. 2022-R139.
The charts are made with StellaNavigator Ver.10 (AstroArts).
The magnitudes graphs are made with Comet for Windows.

---------------------------------------------------------------------

Copyright(C) Seiichi Yoshida (comet@aerith.net). All rights reserved.